Location: ??????
(56.0120°N, 39.1740°E)
Time: 09:21:05
(UTC+00:00)

Cosmos 1110 Rocket - Pass Details

Date: 14 April 2026
Orbit: 747 x 777 km, 74.0° (Epoch: 10 May)

Event Time Altitude Azimuth Distance (km) Brightness Sun altitude
Exits shadow 23:50:48 28° 244° (WSW) 1,426 4.9 -17.5°
Maximum altitude 23:53:21 51° 306° (NW) 969 4.5 -17.3°
Drops below altitude 10° 23:58:32 10° 23° (NNE) 2,336 7.7 -16.9°
Sets 00:01:00 0° 29° (NNE) 3,270 8.9 -16.6°
